SL-12 DEB, 43334

Orbit data source: Space-Track

SL-12 DEB, 43334 is space debris in LEO originally from a launch on Tue, 10 Jan 1989 UTC launched from the Tyuratam Missile And Space Complex (TTMTR). Debris objects in space refer to the collection of defunct objects orbiting the Earth. Examples of debris include non-operational satellites, rocket bodies, and fragments generated from explosions, collisions, or faulty payload assembly.

Loading next visibility...
Identifier
43334, 1989-001Y
Orbit
LEO
Country
Flag of CISCIS
Related business
Manufacturer
Unknown
Mission
Spacecraft
Bus & Motor
Unknown
Mass
Unknown
Launch date (UTC)
1989-01-10 (38 years ago)
Launch vehicle
Unknown
Launch site
Tyuratam Missile And Space Complex (TTMTR)
Object type
Payload
Rocket body
Debris
Shape & HBR
Unknown shape, 0.1 m
Radar Cross Section
Medium (>0.1 m² and <1 m²)

Expand to show TLE details & history
Last TLE update: 2 days ago

TLE from 2 days ago
0 SL-12 DEB
1 43334U 89001Y   26252.73859059  .00000921  00000-0  15919-1 0  9996
2 43334  64.5670  69.6503 1720779 343.4136  11.6530  9.86104251169450
Epoch: 2026-09-09T17:43Z
TLE epoch observation values (Epoch: 2026-09-09T17:43:34.226Z)
Latitude
0.00003°
Longitude
174.97137°
Altitude
1,275.846 km
Speed
7.797 km/s
True Right ascension
04h 38m 36s
True Declination
0° 00' 00"
Sunlit
Object was in daylight at epoch
Visualization orbit readout
Latitude
Unknown
Longitude
Unknown
Altitude
Unknown
Speed
Unknown
Apparent Right ascension
Unknown
Apparent Declination
Unknown
Sunlit
N/A
Visualization observer readout
Local Sidereal Time
04:28:15
Azimuth
Unknown
Elevation
Unknown
Doppler factor
Unknown
Orbital elements
Apogee altitude
4,387.103 km
Perigee altitude
1,226.119 km
Semi-major axis
9,184.748 km
Eccentricity
0.17208
Inclination
64.567°
RAAN
69.6503°
Arg. of periapsis
343.4136°
True anomaly
16.67755°
Mean anomaly
11.653°
Eccentric anomaly
14.04584°
Mean motion
2.46571 °/min
Orbital period
146 mins
BSTAR
0.015919
Loading maneuver chart data...
Computing Atmospheric mass density...

Documentation

Showing up to 5 results
|